GW1540 Weather Reports


time (UTC)temp
C
wind
direction
speed
KPH
gust
KPH
rain 1hr
cm
rain 24hr
cm
rain mn
cm
humidity
%
barometer
mb
20260901033102 10 265 0.0 0.0 0.00 0.00 0.00 94 1018.6
20260901031544 9 265 0.0 0.0 0.00 0.00 0.00 94 1018.4
20260901030048 10 265 0.0 0.0 0.00 0.00 0.00 95 1018.7
20260901023102 9 265 0.0 0.0 0.00 0.00 0.00 93 1018.5
20260901013058 10 265 0.0 0.0 0.00 0.00 0.00 94 1018.2
20260901010054 10 265 0.0 0.0 0.00 0.00 0.00 93 1018.2
20260901004554 10 265 0.0 0.0 0.00 0.00 0.00 93 1017.9
20260901003056 10 265 0.0 0.0 0.00 0.00 0.00 93 1017.9
20260901001542 10 265 0.0 3.2 0.00 0.00 0.00 93 1017.8
20260901000039 10 265 0.0 3.2 0.00 0.00 0.00 93 1017.6
20260831233247 11 265 0.0 0.0 0.00 0.00 0.00 93 1017.5
20260831231604 11 265 0.0 0.0 0.00 0.00 0.00 92 1017.3
20260831230056 11 265 0.0 0.0 0.00 0.00 0.00 92 1017.2
20260831223101 12 265 0.0 3.2 0.00 0.00 0.00 91 1017.0
20260831220139 12 265 0.0 3.2 0.00 0.00 0.00 91 1017.0
20260831214552 12 265 0.0 3.2 0.00 0.00 0.00 92 1016.9
20260831211611 12 265 0.0 3.2 0.00 0.00 0.00 92 1016.4
20260831210056 12 265 0.0 3.2 0.00 0.00 0.00 91 1016.1
20260831204532 12 265 0.0 1.6 0.00 0.00 0.00 92 1015.9
20260831201745 13 265 0.0 1.6 0.00 0.00 0.00 92 1015.6
20260831200033 13 265 0.0 0.0 0.00 0.00 0.00 90 1015.4
20260831193039 14 265 0.0 3.2 0.00 0.00 0.00 88 1015.4
20260831191539 15 265 0.0 3.2 0.00 0.00 0.00 88 1015.3
20260831184603 16 265 1.6 3.2 0.00 0.00 0.00 88 1015.2
20260831183039 16 265 0.0 3.2 0.00 0.00 0.00 86 1014.9
20260831180057 17 265 1.6 4.8 0.00 0.00 0.00 84 1014.7
20260831174545 18 265 1.6 4.8 0.00 0.00 0.00 84 1014.8
20260831173037 18 265 0.0 3.2 0.00 0.00 0.00 84 1014.6
20260831170043 20 265 0.0 3.2 0.00 0.00 0.00 80 1014.8
20260831163100 22 268 1.6 6.4 0.00 0.00 0.00 68 1014.9
20260831160104 23 236 1.6 12.9 0.00 0.00 0.00 63 1014.8
20260831154530 23 285 1.6 6.4 0.00 0.00 0.00 64 1015.2
20260831151543 25 265 1.6 11.3 0.00 0.00 0.00 59 1015.4
20260831144544 25 57 0.0 8.0 0.00 0.00 0.00 62 1015.6
20260831141559 25 271 6.4 16.1 0.00 0.00 0.00 64 1015.5
20260831140041 25 188 1.6 9.7 0.00 0.00 0.00 63 1015.4
20260831133055 24 219 4.8 24.1 0.00 0.00 0.00 64 1015.6
20260831130042 25 141 6.4 20.9 0.00 0.00 0.00 64 1015.8
20260831123827 23 221 0.0 14.5 0.00 0.00 0.00 63 1015.9
20260831101547 24 302 4.8 8.0 0.00 0.00 0.00 59 1016.3
20260831100042 23 310 1.6 6.4 0.00 0.00 0.00 59 1016.4
20260831093055 23 171 1.6 8.0 0.00 0.00 0.00 59 1016.5
20260831091537 22 78 0.0 9.7 0.00 0.00 0.00 65 1016.6
20260831084614 22 54 0.0 6.4 0.00 0.00 0.00 71 1016.4
20260831083056 21 99 0.0 4.8 0.00 0.00 0.00 77 1016.3
20260831081548 20 194 1.6 3.2 0.00 0.00 0.00 77 1016.3
20260831074545 18 202 0.0 3.2 0.00 0.00 0.00 87 1016.4
20260831071612 16 202 0.0 3.2 0.00 0.00 0.00 96 1016.4
20260831064612 13 202 0.0 3.2 0.00 0.00 0.00 96 1016.3
20260831063038 12 202 0.0 3.2 0.00 0.00 0.00 96 1016.6
20260831060053 10 202 0.0 0.0 0.00 0.00 0.00 95 1016.4
20260831053106 8 202 0.0 0.0 0.00 0.00 0.00 95 1016.4
20260831050041 8 202 0.0 0.0 0.00 0.00 0.00 95 1016.3
20260831044539 8 202 0.0 0.0 0.00 0.00 0.00 94 1016.2
20260831041629 8 202 0.0 0.0 0.00 0.00 0.00 94 1016.3